This is the latest recevied weather packets stored in our database for station/object W4SKW. If no packets are shown the sender has not sent any weather packets the latest 10 day(s).
| Time | Temp. | Humidity | Pressure | Rain* | Wind** | Luminosity | Snow |
|---|---|---|---|---|---|---|---|
| 1778154993 | 16.67° C | 99% | 1013.2 hPa | 7.87 mm | - | 4 W/m² | - |
| 1778154688 | 16.67° C | 99% | 1013.2 hPa | 7.87 mm | - | 4 W/m² | - |
| 1778154384 | 16.67° C | 98% | 1013.5 hPa | 6.1 mm | - | 2 W/m² | - |
| 1778154082 | 16.67° C | 99% | 1013.4 hPa | 4.83 mm | - | 2 W/m² | - |
| 1778153779 | 16.67° C | 99% | 1013.3 hPa | 4.83 mm | - | 2 W/m² | - |
| 1778153476 | 16.67° C | 99% | 1012.9 hPa | 4.83 mm | - | 5 W/m² | - |
| 1778153174 | 16.67° C | 99% | 1012.9 hPa | 4.83 mm | - | 5 W/m² | - |
| 1778152870 | 16.67° C | 99% | 1012.8 hPa | 4.83 mm | - | 3 W/m² | - |
| 1778152568 | 16.67° C | 99% | 1012.1 hPa | 8.89 mm | - | 1 W/m² | - |
| 1778152264 | 16.67° C | 99% | 1012.1 hPa | 8.89 mm | - | 1 W/m² | - |
| 1778151961 | 16.67° C | 99% | 1012.5 hPa | 3.05 mm | - | 1 W/m² | - |
| 1778151657 | 16.67° C | 99% | 1012.8 hPa | 1.27 mm | - | 1 W/m² | - |
| 1778151354 | 16.67° C | 98% | 1012.5 hPa | 1.78 mm | - | 1 W/m² | - |
| 1778151050 | 16.67° C | 99% | 1012.2 hPa | 1.78 mm | - | 0 W/m² | - |
| 1778150748 | 16.67° C | 98% | 1012.2 hPa | 0 mm | - | 0 W/m² | - |
| 1778150444 | 16.67° C | 99% | 1011.4 hPa | 1.78 mm | - | 0 W/m² | - |
| 1778150140 | 16.67° C | 99% | 1011.6 hPa | 1.78 mm | - | 0 W/m² | - |
| 1778149837 | 16.67° C | 98% | 1011.4 hPa | 0 mm | - | 0 W/m² | - |
| 1778149533 | 16.67° C | 98% | 1011.8 hPa | 0 mm | - | 0 W/m² | - |
| 1778149230 | 16.67° C | 98% | 1011.8 hPa | 0 mm | - | 0 W/m² | - |
| 1778148925 | 16.67° C | 98% | 1011.9 hPa | 0 mm | - | 0 W/m² | - |
| 1778148622 | 16.67° C | 98% | 1012.3 hPa | 0 mm | - | 0 W/m² | - |
| 1778148319 | 16.67° C | 98% | 1012.5 hPa | 0 mm | - | 0 W/m² | - |
| 1778148017 | 16.67° C | 98% | 1011.9 hPa | 0 mm | - | 0 W/m² | - |
| 1778147715 | 16.67° C | 98% | 1012.1 hPa | 3.05 mm | - | 0 W/m² | - |
* Rain latest hour (hover to see other rain measurements)
** Current wind speed in m/s (hover to see current wind gust speed)